User: anonymous
Location: Goheenville
(40.9070°N, 79.3720°W)
Time: 09:33:47
(UTC-04:00)
Language:

Cosmos 1727 Rocket - Orbit

View from above orbital plane
View from above orbital plane
View from above satellite
View from above satellite

Ground track
Ground track

The orbit data is extracted from the following two-line orbital elements,

1 16511U 86008B   14260.11345204 -.00000019  00000-0 -35518-4 0  5702
2 16511 082.9430 244.4942 0024046 203.9541 209.3961 13.75769457438213
Epoch (UTC): 17 September 2014 02:43:22
Eccentricity: 0.0024046
inclination: 82.9430°
perigee height: 961 km
apogee height: 996 km
right ascension of ascending node: 244.4942°
argument of perigee: 203.9541°
revolutions per day: 13.75769457
mean anomaly at epoch: 209.3961°
orbit number at epoch: 43821

The dashed part of the orbit path shows where the satellite is in the earth's shadow,  

DLR